Simultaneous Nadir Overpasses (SNOs) Predictions

Prediction of SNOs between FY3D and METOP-C Satellite Orbit:

Table of predicted SNOs for the next 14.0 days since TLE Epoch: 12/9/2022
Index Date (FY3D) Time (FY3D) Lat,Lon (FY3D) SZA (FY3D ) Date (METOP-C) Time (METOP-C) Lat,Lon (METOP-C) SZA (METOP-C ) Distance(km) Time Diff (sec)
1 12/21/2022 20:50:32 -75.13, 41.05 81.45 12/21/2022 20:51:37 -75.04, 44.51 81.60 99.32 65
2 12/21/2022 21:41:14 74.91,-150.99 98.32 12/21/2022 21:42:22 74.84,-148.73 98.21 65.95 68
3 12/21/2022 22:31:55 -74.71, 16.87 81.89 12/21/2022 22:33:06 -74.69, 18.17 81.94 38.51 71
4 12/21/2022 23:22:38 74.53,-175.34 97.93 12/21/2022 23:23:51 74.48,-175.04 97.86 10.49 73
5 12/22/2022 00:13:21 -74.44, -7.76 82.18 12/22/2022 00:14:33 -74.42, -7.86 82.20 3.35 72
6 12/22/2022 01:04:08 74.45, 159.51 97.84 12/22/2022 01:05:13 74.46, 159.56 97.84 2.00 65
7 12/22/2022 01:54:53 -74.45, -33.18 82.17 12/22/2022 01:55:54 -74.45, -33.13 82.17 1.50 61
8 12/22/2022 02:45:39 74.42, 134.22 97.80 12/22/2022 02:46:35 74.44, 134.17 97.82 3.20 56
9 12/22/2022 03:36:24 -74.42, -58.47 82.20 12/22/2022 03:37:16 -74.43, -58.52 82.19 2.49 52
10 12/22/2022 04:27:11 74.43, 108.80 97.82 12/22/2022 04:27:57 74.42, 108.78 97.81 1.25 46
11 12/22/2022 05:17:56 -74.43, -83.88 82.19 12/22/2022 05:18:38 -74.41, -83.92 82.21 2.11 42
12 12/22/2022 06:08:43 74.44, 83.39 97.83 12/22/2022 06:09:18 74.45, 83.51 97.83 3.73 35
13 12/22/2022 06:59:28 -74.44,-109.30 82.18 12/22/2022 06:59:59 -74.44,-109.18 82.18 3.47 31
14 12/22/2022 07:50:14 74.41, 58.10 97.79 12/22/2022 07:50:40 74.43, 58.12 97.81 2.49 26
15 12/22/2022 08:40:59 -74.41,-134.59 82.21 12/22/2022 08:41:21 -74.42,-134.58 82.20 1.54 22
16 12/22/2022 09:31:46 74.42, 32.68 97.81 12/22/2022 09:32:02 74.41, 32.72 97.79 1.74 16
17 12/22/2022 10:22:30 -74.42,-160.00 82.20 12/22/2022 10:22:42 -74.40,-159.97 82.22 2.41 12
18 12/22/2022 11:13:16 74.38, 7.40 97.77 12/22/2022 11:13:23 74.39, 7.33 97.77 2.02 7
19 12/22/2022 12:04:01 -74.38, 174.71 82.24 12/22/2022 12:04:04 -74.38, 174.64 82.24 2.23 3
20 12/22/2022 12:54:48 74.40, -18.02 97.78 12/22/2022 12:54:44 74.42, -17.93 97.80 3.25 4
21 12/22/2022 13:45:33 -74.40, 149.30 82.22 12/22/2022 13:45:25 -74.41, 149.37 82.21 2.58 8
22 12/22/2022 14:36:20 74.41, -43.43 97.80 12/22/2022 14:36:06 74.40, -43.33 97.78 3.60 14
23 12/22/2022 15:27:04 -74.36, 124.01 82.26 12/22/2022 15:26:47 -74.39, 123.98 82.23 2.95 17
24 12/22/2022 16:17:51 74.38, -68.72 97.76 12/22/2022 16:17:28 74.37, -68.72 97.76 0.04 23
25 12/22/2022 17:08:36 -74.37, 98.59 82.25 12/22/2022 17:08:09 -74.37, 98.59 82.25 0.90 27
26 12/22/2022 17:59:22 74.34, -94.01 97.72 12/22/2022 17:58:50 74.35, -94.11 97.74 3.52 32
27 12/22/2022 18:50:07 -74.34, 73.30 82.28 12/22/2022 18:49:31 -74.35, 73.19 82.27 3.40 36
28 12/22/2022 19:40:54 74.35,-119.43 97.73 12/22/2022 19:40:12 74.33,-119.51 97.72 3.20 42
29 12/22/2022 20:31:39 -74.35, 47.89 82.27 12/22/2022 20:30:52 -74.37, 47.93 82.25 2.73 47
30 12/22/2022 21:22:26 74.37,-144.84 97.75 12/22/2022 21:21:33 74.36,-144.77 97.75 2.11 53
31 12/22/2022 22:13:11 -74.36, 22.47 82.26 12/22/2022 22:12:14 -74.35, 22.54 82.27 2.21 57
32 12/22/2022 23:03:57 74.33,-170.13 97.71 12/22/2022 23:02:55 74.34,-170.17 97.73 1.65 62
33 12/22/2022 23:54:42 -74.33, -2.81 82.30 12/22/2022 23:53:36 -74.33, -2.86 82.29 1.37 66
34 12/23/2022 00:45:29 74.34, 164.45 97.72 12/23/2022 00:44:17 74.32, 164.44 97.71 2.53 72
35 12/23/2022 01:36:13 -74.29, -28.10 82.33 12/23/2022 01:34:58 -74.31, -28.25 82.31 4.90 75



Historial Predications of SNOs between FY3D and METOP-C
